sat.trackr.live / text

‹ back to catalog

KUIPER-00555

NORAD 69620 · 2026-140AE

PAYLOAD ACTIVE UNKNOWN

§ Identity

Operator
Country
US
Launch date
2026-06-17
Launch site
FRGUI
Launch vehicle
Mass (kg)
RCS (m²)

External: N2YO · Heavens-Above · Gunter

§ Orbital elements

Epoch: 2026-09-20T02:37:58.804032Z

Period
93.68 min
Inclination
51.8871°
Eccentricity
0.0010170
Mean motion
15.37108191 rev/d
Perigee alt
447.7 km
Apogee alt
461.6 km
Semi-major
6,832.8 km
B*
4.8827e-4
RAAN
299.2432°
Arg perigee
149.6451°
Mean anomaly
210.5127°
Rev number
1,584

§ Raw data

KUIPER-005551 69620U 26140AE  26263.10970838  .00017688  00000+0  48827-3 0  99922 69620  51.8871 299.2432 0010170 149.6451 210.5127 15.37108191 15847

JSON: /api/v1/satellites/69620 · /tle

For live sub-satellite position, see the globe view (requires WebGL).

§ Visibility from observer

Set your observer location to see the next 7 days of passes ≥ 10°. The values pass through the URL so the page stays shareable.

No JS? Fill the form by hand. The geolocation button needs JavaScript.